Location: Unspecified
(0.0000°N, 0.0000°E)
Time: 13:31:19
(UTC+00:00)

OV1 5 Rocket - Visible Passes

Search period start: 20 July 2025 00:00
Search period end: 30 July 2025 00:00
Orbit: 980 x 1049 km, 144.6° (Epoch: 19 July)

Date Brightness Start Highest point End Pass type
(mag) Time Alt. Az. Time Alt. Az. Time Alt. Az.
27 Jul 9.3 03:11:36 10° NNE 03:12:54 14° N 03:12:54 14° N visible
28 Jul 9.0 03:45:10 10° N 03:47:42 15° NNW 03:47:42 15° NNW visible
29 Jul 9.6 02:36:40 10° NE 02:37:11 13° NE 02:37:11 13° NE visible
29 Jul 9.1 04:19:03 10° N 04:21:14 12° NNW 04:22:32 11° NW visible
